This demonstration page uses our WeatherBlox Daily Observations layout. Learn more.

Left ArrowRight Arrow

39.01783, -85.05884

Hourly Observations for September 24, 2021

Temp ( °F °C ) Dew Point ( °F °C ) Humidity (%) Winds ( mph kmh ) Pressure ( in mb ) Visibility ( mi km ) Precip ( " mm )
12:52 am 00:52 Clear 51 10.6 42 5.6 71 71 SW 3 6 30.02 1017 10 16 N/A
1:52 am 01:52 Clear 48 8.9 43 6.1 83 83 N N/A 30.02 1017 10 16 N/A
2:52 am 02:52 Clear 49 9.4 42 5.6 77 77 N N/A 30.03 1017 10 16 N/A
3:52 am 03:52 Clear 47 8.3 43 6.1 86 86 N N/A 30.04 1017 10 16 N/A
4:52 am 04:52 Clear 47 8.3 43 6.1 86 86 N N/A 30.05 1018 10 16 N/A
5:52 am 05:52 Clear 47 8.3 43 6.1 86 86 N N/A 30.07 1018 10 16 N/A
6:52 am 06:52 Clear 46 7.8 43 6.1 89 89 SSW 3 6 30.08 1019 10 16 N/A
7:52 am 07:52 Sunny 47 8.3 43 6.1 86 86 SSW 5 7 30.09 1019 10 16 N/A
8:52 am 08:52 Sunny 52 11.1 46 7.8 80 80 SW 5 7 30.10 1019 10 16 N/A
9:52 am 09:52 Sunny 58 14.4 47 8.3 67 67 WSW 5 7 30.11 1020 10 16 N/A
10:52 am 10:52 Sunny 64 17.8 47 8.3 54 54 W 7 11 30.12 1020 10 16 N/A
11:52 am 11:52 Sunny 68 20 47 8.3 47 47 VRB 7 11 30.12 1020 10 16 N/A
12:52 pm 12:52 Sunny 71 21.7 46 7.8 41 41 WNW 13 20 30.10 1019 9 14 N/A
1:52 pm 13:52 Sunny 72 22.2 44 6.7 37 37 SW 12 19 30.09 1019 10 16 N/A
2:52 pm 14:52 Sunny 73 22.8 45 7.2 37 37 SW 8 13 30.06 1018 10 16 N/A
3:52 pm 15:52 Sunny 73 22.8 46 7.8 38 38 S 13 20 30.05 1018 10 16 N/A
4:52 pm 16:52 Mostly Sunny 72 22.2 45 7.2 38 38 S 10 17 30.04 1017 10 16 N/A
5:52 pm 17:52 Mostly Sunny 71 21.7 45 7.2 39 39 SW 7 11 30.04 1017 10 16 N/A
6:52 pm 18:52 Mostly Sunny 68 20 46 7.8 45 45 SSW 8 13 30.04 1017 10 16 N/A
7:52 pm 19:52 Mostly Clear 63 17.2 47 8.3 56 56 S 6 9 30.05 1018 10 16 N/A
8:52 pm 20:52 Mostly Clear 61 16.1 47 8.3 60 60 S 5 7 30.06 1018 10 16 N/A
9:52 pm 21:52 Mostly Clear 60 15.6 48 8.9 65 65 SSW 8 13 30.05 1018 10 16 N/A
10:52 pm 22:52 Partly Cloudy 58 14.4 48 8.9 70 70 S 7 11 30.05 1018 10 16 N/A
11:52 pm 23:52 Partly Cloudy 56 13.3 48 8.9 75 75 S 8 13 30.03 1017 10 16 N/A

Powered by AerisWeather